Location: Trébons-de-Luchon
(42.8036°N, 0.5656°E)
Time: 11:32:51
(UTC+02:00)

ISS - Visible Passes

Search period start: 15 May 2021 00:00
Search period end: 25 May 2021 00:00
Orbit: 417 x 422 km, 51.6° (Epoch: 15 May)

Date Brightness Start Highest point End Pass type
(mag) Time Alt. Az. Time Alt. Az. Time Alt. Az.
15 May -1.9 00:25:33 10° W 00:28:36 31° NNW 00:31:39 10° NE visible
15 May -0.8 02:03:45 10° NW 02:06:09 18° N 02:08:34 10° NE visible
15 May -1.6 03:40:49 10° NW 03:43:45 27° NNE 03:46:42 10° E visible
15 May -3.8 05:17:27 10° WNW 05:20:47 63° SW 05:24:07 10° SE visible
15 May -2.8 22:01:28 10° SSW 22:04:21 27° SE 22:07:16 10° ENE visible
15 May -2.5 23:37:49 10° W 23:41:03 43° NNW 23:44:17 10° NE visible
16 May -0.9 01:16:01 10° NW 01:18:29 19° N 01:20:58 10° NE visible
16 May -1.2 02:53:25 10° NW 02:56:08 22° NNE 02:58:53 10° ENE visible
16 May -3.7 04:29:58 10° NW 04:33:21 80° NNE 04:36:44 10° ESE visible
16 May -3.4 22:50:12 10° WSW 22:53:32 65° NNW 22:56:54 10° NE visible
17 May -1.1 00:28:11 10° WNW 00:30:49 21° NNW 00:33:28 10° NE visible
17 May -1.0 02:05:56 10° NW 02:08:30 19° N 02:11:03 10° ENE visible
17 May -2.9 03:42:34 10° NW 03:45:52 51° NNE 03:49:10 10° ESE visible
17 May -2.6 05:19:47 10° W 05:22:29 22° SW 05:25:09 10° S visible
17 May -3.8 22:02:44 10° SW 22:06:05 79° SE 22:09:27 10° ENE visible
17 May -1.3 23:40:21 10° WNW 23:43:11 25° NNW 23:46:02 10° NE visible
18 May -0.9 01:18:24 10° NW 01:20:49 18° N 01:22:52 12° NE visible
18 May -0.9 02:55:11 10° NW 02:55:46 14° NW 02:55:46 14° NW visible
18 May -1.8 22:52:32 10° W 22:55:35 31° NNW 22:58:38 10° NE visible
19 May -0.9 00:30:44 10° NW 00:33:08 18° N 00:35:32 10° NE visible
19 May -1.2 02:07:47 10° NW 02:09:22 20° NNW 02:09:22 20° NNW visible
19 May -2.4 22:04:47 10° W 22:08:00 43° NNW 22:11:15 10° NE visible
19 May -0.9 23:42:59 10° NW 23:45:27 19° N 23:47:55 10° NE visible
20 May -1.3 01:20:22 10° NW 01:23:07 22° NNE 01:23:11 22° NNE visible
20 May -1.1 22:55:08 10° WNW 22:57:46 21° NNW 23:00:25 10° NE visible
21 May -1.1 00:32:54 10° NW 00:35:26 19° N 00:37:05 14° NE visible
21 May -0.9 02:09:30 10° NW 02:10:01 14° NW 02:10:01 14° NW visible
21 May -1.3 22:07:17 10° WNW 22:10:07 24° NNW 22:12:57 10° NE visible
21 May -1.0 23:45:19 10° NW 23:47:45 18° N 23:50:10 10° NE visible
22 May -1.5 01:22:06 10° NW 01:23:58 25° NNW 01:23:58 25° NNW visible
22 May -1.0 22:57:39 10° NW 23:00:03 18° N 23:02:26 10° NE visible
23 May -1.9 00:34:42 10° NW 00:37:39 27° NNE 00:37:57 27° NNE visible
23 May -1.0 22:09:52 10° NW 22:12:20 19° N 22:14:49 10° NE visible
23 May -1.5 23:47:16 10° NW 23:50:00 22° NNE 23:51:57 14° ENE visible
24 May -1.3 01:23:49 10° NW 01:24:53 19° NW 01:24:53 19° NW visible
24 May -1.3 22:59:46 10° NW 23:02:19 19° N 23:04:51 10° ENE visible
